Temp
-1 -1 -1 -1 -1 -1 -1 -1 -1 -0 0 -0 -0 -1 -1 -1 -1 -1 -1 -1 -1 -1 -1 -1 -1 -1 -1 -1 -1 -1 -1 -1 -1 -2 -2 -2 -2 -2 -2 -1 -1 -1 -1 0 0 -0 -0 -0 0 1 2 2
-1 -1 -1 -1 -1 -1 -1 -1 -1 -1 -0 -1 -1 -1 -1 -1 -1 -1 -1 -1 -1 -2 -2 -1 -1 -1 -1 -1 -1 -2 -2 -1 -1 -1 -2 -2 -2 -2 -2 -2 -1 -1 -1 -0 0 0 -0 -0 -0 0 1 1
-1 -1 -1 -1 -1 -1 -1 -2 -2 -1 -1 -1 -1 -1 -1 -1 -1 -2 -2 -2 -2 -2 -2 -2 -2 -2 -2 -2 -2 -2 -2 -2 -2 -2 -2 -2 -2 -2 -2 -2 -2 -2 -2 -1 0 0 -0 -1 -1 -0 -0 1
-1 -1 -1 -1 -1 -1 -2 -2 -2 -1 -1 -1 -1 -2 -2 -2 -2 -2 -2 -2 -2 -2 -2 -2 -2 -2 -2 -2 -2 -2 -2 -2 -2 -2 -2 -2 -2 -2 -2 -2 -2 -2 -2 -2 -1 -0 -0 -1 -1 -1 -1 -0
-2 -1 -1 -1 -1 -2 -2 -2 -2 -2 -2 -2 -2 -2 -2 -2 -2 -2 -2 -2 -2 -2 -2 -2 -2 -2 -2 -2 -2 -2 -2 -2 -2 -2 -2 -2 -2 -2 -2 -2 -3 -3 -2 -2 -2 -1 -0 -0 -1 -1 -1 -1
-2 -2 -2 -2 -2 -2 -2 -2 -3 -2 -2 -2 -2 -3 -2 -2 -2 -3 -3 -3 -3 -2 -3 -3 -2 -2 -2 -2 -2 -2 -2 -2 -2 -2 -2 -3 -2 -2 -2 -2 -2 -3 -3 -2 -2 -2 -1 -0 -0 -1 -1 -1
-3 -3 -2 -2 -2 -2 -2 -3 -3 -3 -3 -3 -3 -3 -3 -3 -3 -3 -3 -3 -3 -2 -3 -3 -3 -3 -3 -2 -2 -2 -2 -2 -2 -2 -3 -3 -3 -3 -2 -2 -2 -3 -3 -3 -3 -2 -1 -1 -1 -0 -1 -2
-4 -3 -3 -3 -3 -3 -3 -3 -3 -3 -4 -4 -4 -4 -4 -4 -4 -3 -3 -3 -3 -3 -3 -3 -3 -3 -3 -3 -3 -2 -2 -2 -3 -3 -3 -3 -3 -3 -3 -3 -3 -3 -3 -3 -3 -3 -2 -2 -2 -1 -1 -2
-5 -4 -4 -4 -4 -3 -3 -3 -3 -3 -4 -4 -4 -4 -4 -4 -4 -3 -3 -3 -3 -3 -3 -3 -3 -3 -3 -3 -3 -3 -3 -3 -3 -3 -3 -3 -3 -3 -3 -3 -3 -3 -3 -3 -3 -3 -3 -2 -3 -2 -1 -2
-6 -5 -5 -5 -5 -4 -4 -4 -4 -4 -4 -4 -4 -5 -5 -5 -5 -4 -3 -3 -3 -3 -3 -3 -3 -3 -3 -3 -3 -3 -3 -3 -3 -3 -3 -3 -3 -3 -3 -3 -3 -3 -3 -3 -3 -3 -3 -2 -3 -3 -2 -2
-7 -6 -6 -6 -6 -5 -5 -5 -5 -5 -5 -5 -5 -5 -5 -5 -5 -5 -4 -4 -4 -4 -4 -4 -4 -4 -4 -4 -4 -3 -3 -3 -3 -3 -3 -3 -3 -3 -3 -3 -3 -3 -3 -3 -3 -3 -3 -2 -3 -4 -3 -3
-7 -7 -7 -7 -7 -7 -6 -6 -6 -6 -5 -5 -5 -5 -5 -5 -5 -5 -5 -5 -5 -5 -5 -5 -4 -4 -4 -4 -4 -4 -3 -3 -3 -3 -3 -3 -3 -3 -3 -3 -3 -3 -3 -3 -3 -3 -3 -2 -3 -3 -3 -3
-8 -8 -8 -8 -8 -7 -7 -7 -7 -7 -7 -6 -6 -6 -6 -5 -5 -5 -5 -5 -5 -5 -5 -5 -5 -5 -4 -4 -4 -4 -4 -4 -4 -4 -4 -4 -4 -4 -4 -4 -4 -4 -4 -4 -4 -3 -3 -3 -3 -3 -3 -3
-8 -8 -8 -8 -8 -8 -8 -8 -8 -8 -8 -7 -7 -7 -7 -6 -6 -6 -6 -6 -6 -6 -6 -6 -6 -5 -5 -5 -4 -4 -4 -4 -4 -4 -4 -4 -4 -4 -4 -4 -4 -4 -4 -4 -4 -4 -4 -3 -3 -3 -3 -3
-8 -8 -8 -8 -8 -8 -8 -8 -8 -8 -8 -8 -8 -8 -8 -7 -7 -7 -7 -6 -6 -6 -6 -6 -6 -6 -6 -6 -5 -5 -5 -5 -5 -5 -5 -5 -4 -4 -4 -4 -4 -4 -4 -4 -4 -4 -4 -4 -3 -3 -3 -3
-8 -8 -8 -8 -8 -8 -8 -8 -8 -8 -8 -8 -8 -8 -8 -8 -8 -8 -8 -7 -7 -7 -6 -6 -6 -6 -6 -6 -6 -5 -6 -6 -5 -5 -5 -5 -5 -5 -4 -4 -4 -4 -4 -4 -4 -4 -4 -4 -4 -3 -3 -3
-9 -9 -8 -8 -8 -8 -8 -8 -8 -8 -8 -8 -8 -8 -8 -8 -8 -8 -8 -8 -8 -7 -7 -7 -6 -6 -6 -6 -6 -5 -5 -6 -6 -6 -6 -6 -6 -5 -5 -5 -5 -4 -4 -4 -4 -4 -4 -4 -4 -4 -4 -3
-9 -9 -9 -9 -9 -9 -9 -9 -9 -8 -8 -8 -8 -8 -8 -8 -8 -8 -8 -8 -8 -8 -7 -7 -7 -7 -6 -6 -6 -5 -5 -5 -5 -6 -6 -6 -6 -6 -6 -6 -5 -5 -5 -5 -5 -5 -5 -5 -4 -4 -4 -4
-9 -9 -9 -9 -9 -9 -9 -9 -9 -9 -9 -8 -8 -8 -8 -8 -8 -8 -8 -8 -8 -7 -7 -7 -7 -7 -7 -7 -6 -6 -5 -5 -5 -5 -6 -6 -6 -6 -6 -6 -6 -6 -5 -5 -5 -5 -5 -5 -5 -4 -4 -4
-10 -10 -10 -10 -10 -10 -10 -10 -9 -9 -9 -9 -8 -8 -8 -8 -8 -8 -8 -8 -7 -7 -7 -7 -7 -7 -7 -7 -6 -6 -6 -5 -5 -5 -5 -5 -6 -6 -6 -6 -6 -6 -6 -5 -5 -5 -5 -5 -4 -4 -4 -4
-11 -11 -10 -10 -10 -10 -10 -10 -10 -10 -9 -9 -9 -9 -9 -8 -8 -8 -8 -7 -7 -7 -7 -7 -7 -7 -7 -7 -6 -6 -6 -6 -5 -5 -5 -5 -5 -5 -5 -5 -6 -6 -6 -5 -5 -5 -5 -5 -5 -4 -4 -4
-12 -11 -11 -11 -10 -10 -10 -10 -10 -10 -10 -10 -10 -10 -10 -9 -9 -8 -8 -8 -8 -8 -7 -7 -7 -7 -7 -7 -6 -6 -6 -6 -6 -6 -5 -5 -5 -5 -5 -5 -5 -5 -5 -5 -5 -5 -5 -5 -5 -5 -4 -4
-13 -13 -12 -12 -11 -11 -11 -11 -11 -11 -11 -11 -11 -11 -11 -10 -10 -9 -9 -8 -8 -8 -8 -8 -8 -7 -7 -7 -7 -6 -6 -6 -6 -6 -6 -5 -5 -5 -5 -5 -5 -4 -5 -5 -5 -5 -5 -5 -5 -5 -5 -5
-13 -13 -13 -13 -12 -12 -12 -11 -11 -11 -11 -11 -11 -11 -11 -11 -10 -10 -9 -9 -9 -9 -9 -9 -8 -8 -8 -7 -7 -7 -6 -6 -6 -6 -5 -5 -5 -5 -5 -4 -4 -4 -4 -5 -5 -5 -4 -5 -5 -5 -5 -5
-13 -13 -13 -13 -13 -12 -12 -12 -12 -11 -11 -11 -11 -11 -11 -11 -11 -10 -10 -10 -10 -10 -10 -9 -9 -9 -9 -8 -8 -7 -7 -7 -6 -6 -6 -5 -5 -5 -5 -4 -4 -4 -4 -4 -4 -5 -4 -4 -4 -4 -5 -5
-13 -13 -13 -13 -13 -13 -13 -12 -12 -12 -12 -11 -11 -11 -11 -11 -11 -11 -11 -11 -11 -11 -11 -10 -10 -10 -9 -9 -8 -8 -8 -7 -7 -6 -6 -6 -5 -5 -5 -5 -5 -5 -4 -4 -4 -4 -4 -4 -4 -4 -4 -4
-14 -14 -14 -14 -14 -14 -14 -13 -13 -12 -12 -12 -12 -12 -12 -12 -12 -11 -11 -12 -12 -12 -12 -11 -11 -11 -10 -10 -10 -9 -8 -8 -7 -7 -7 -6 -6 -6 -6 -5 -5 -5 -5 -5 -5 -5 -5 -4 -4 -4 -4 -4
-16 -16 -16 -16 -16 -15 -15 -15 -14 -13 -13 -13 -13 -13 -13 -13 -12 -12 -12 -13 -13 -13 -13 -12 -12 -12 -11 -11 -11 -10 -10 -9 -9 -8 -8 -8 -7 -7 -6 -6 -6 -6 -6 -5 -5 -5 -5 -4 -4 -4 -4 -4
-17 -18 -18 -18 -17 -17 -17 -16 -15 -14 -13 -13 -14 -14 -13 -14 -13 -13 -13 -13 -14 -14 -14 -14 -14 -13 -12 -12 -12 -12 -11 -10 -10 -10 -9 -9 -9 -8 -8 -7 -7 -7 -6 -6 -6 -6 -5 -5 -5 -5 -4 -4
-19 -19 -19 -19 -19 -19 -18 -17 -16 -15 -15 -14 -14 -14 -14 -14 -14 -14 -14 -14 -15 -15 -15 -16 -16 -15 -14 -14 -14 -13 -13 -12 -12 -12 -12 -12 -11 -11 -10 -9 -9 -8 -7 -7 -7 -7 -6 -6 -6 -5 -5 -5
-20 -20 -20 -20 -20 -20 -19 -18 -18 -18 -18 -17 -16 -15 -15 -15 -15 -15 -15 -15 -16 -17 -17 -17 -17 -17 -16 -16 -16 -15 -15 -15 -14 -14 -14 -14 -13 -13 -12 -12 -11 -10 -9 -9 -8 -8 -7 -7 -7 -6 -6 -6
Height
3095 3095 3096 3097 3097 3098 3099 3099 3100 3100 3101 3100 3100 3100 3100 3101 3101 3101 3103 3103 3104 3105 3106 3107 3108 3109 3109 3109 3110 3110 3111 3111 3112 3113 3114 3114 3115 3116 3117 3117 3118 3118 3120 3122 3120 3121 3123 3124 3124 3124 3124 3126
3091 3091 3092 3092 3093 3094 3094 3095 3096 3096 3097 3096 3097 3097 3097 3098 3098 3098 3099 3100 3101 3102 3103 3104 3105 3106 3106 3107 3107 3107 3108 3109 3110 3110 3111 3112 3113 3113 3114 3114 3115 3116 3118 3119 3119 3119 3121 3122 3122 3122 3122 3123
3087 3087 3087 3088 3088 3089 3090 3091 3092 3093 3093 3093 3094 3094 3094 3094 3094 3095 3096 3097 3098 3099 3100 3101 3102 3103 3103 3104 3104 3105 3106 3106 3107 3107 3108 3109 3109 3111 3111 3111 3112 3113 3114 3116 3117 3117 3119 3121 3121 3121 3121 3121
3083 3083 3083 3084 3084 3084 3085 3087 3088 3089 3089 3089 3090 3090 3090 3091 3091 3092 3092 3093 3094 3095 3096 3097 3098 3099 3100 3101 3102 3103 3104 3104 3105 3105 3106 3106 3106 3107 3108 3108 3108 3110 3111 3113 3115 3114 3116 3119 3119 3119 3119 3119
3080 3080 3080 3080 3080 3080 3081 3082 3083 3084 3085 3085 3086 3086 3087 3087 3088 3088 3089 3090 3090 3091 3092 3093 3094 3095 3096 3097 3099 3100 3101 3102 3102 3102 3103 3103 3103 3104 3106 3105 3105 3107 3108 3109 3111 3112 3112 3116 3117 3118 3118 3118
3076 3076 3077 3076 3077 3077 3077 3077 3078 3079 3080 3080 3081 3082 3083 3084 3085 3085 3086 3087 3087 3088 3089 3089 3090 3091 3092 3093 3094 3096 3098 3099 3099 3100 3100 3100 3100 3101 3103 3103 3103 3104 3104 3106 3109 3109 3109 3112 3114 3116 3116 3116
3072 3073 3073 3073 3073 3073 3074 3074 3074 3074 3075 3076 3077 3078 3079 3080 3081 3082 3082 3083 3084 3084 3085 3086 3086 3087 3088 3088 3090 3091 3093 3094 3095 3096 3097 3098 3098 3098 3100 3100 3100 3101 3101 3102 3105 3107 3107 3108 3110 3112 3114 3114
3068 3068 3069 3069 3069 3070 3070 3070 3070 3070 3071 3071 3072 3073 3074 3076 3077 3078 3078 3079 3080 3080 3081 3082 3083 3084 3084 3085 3086 3087 3088 3089 3091 3092 3094 3095 3095 3096 3097 3097 3098 3098 3098 3099 3101 3104 3105 3106 3107 3108 3111 3112
3065 3064 3064 3064 3065 3065 3066 3066 3066 3067 3067 3067 3068 3069 3070 3071 3072 3073 3074 3075 3076 3076 3077 3078 3079 3080 3081 3082 3083 3083 3084 3085 3087 3088 3089 3091 3092 3092 3093 3094 3095 3095 3096 3096 3098 3101 3102 3103 3103 3105 3108 3110
3061 3061 3061 3061 3061 3061 3061 3062 3062 3063 3063 3064 3064 3065 3066 3067 3068 3069 3069 3070 3071 3071 3072 3073 3075 3076 3077 3078 3079 3080 3081 3081 3083 3084 3085 3087 3088 3089 3090 3091 3092 3092 3093 3094 3096 3098 3099 3099 3100 3101 3104 3107
3059 3059 3058 3058 3057 3057 3057 3058 3058 3058 3059 3060 3060 3061 3062 3063 3064 3065 3065 3065 3066 3066 3067 3068 3069 3071 3073 3074 3075 3076 3077 3078 3079 3080 3081 3083 3084 3085 3086 3087 3088 3089 3090 3091 3093 3095 3096 3096 3097 3098 3100 3103
3057 3057 3056 3055 3055 3054 3054 3054 3054 3054 3055 3055 3056 3057 3058 3059 3060 3061 3061 3062 3061 3062 3062 3063 3064 3066 3068 3070 3071 3072 3073 3074 3075 3076 3077 3079 3080 3082 3083 3084 3084 3085 3086 3088 3090 3092 3094 3093 3094 3095 3096 3099
3055 3055 3054 3054 3053 3052 3052 3051 3051 3051 3051 3051 3051 3052 3053 3054 3055 3056 3057 3058 3058 3058 3058 3058 3059 3061 3063 3065 3066 3067 3068 3069 3070 3071 3073 3074 3076 3077 3079 3080 3080 3081 3082 3084 3086 3088 3090 3091 3091 3092 3093 3096
3051 3051 3051 3051 3051 3050 3050 3049 3048 3048 3048 3047 3048 3048 3048 3049 3050 3051 3052 3052 3053 3054 3054 3054 3055 3056 3058 3059 3060 3062 3063 3064 3066 3066 3068 3069 3071 3072 3074 3075 3076 3077 3078 3079 3082 3084 3086 3087 3088 3089 3091 3092
3047 3047 3047 3047 3047 3047 3047 3047 3046 3046 3045 3045 3045 3044 3045 3045 3045 3046 3046 3047 3047 3048 3048 3049 3050 3051 3052 3054 3055 3056 3057 3059 3060 3062 3063 3064 3066 3067 3069 3070 3072 3073 3074 3075 3077 3079 3082 3083 3084 3086 3087 3089
3042 3042 3042 3042 3042 3042 3042 3043 3043 3043 3043 3043 3042 3042 3042 3041 3041 3041 3042 3042 3042 3042 3043 3044 3044 3046 3047 3048 3049 3050 3051 3053 3054 3056 3058 3059 3060 3062 3063 3065 3066 3068 3069 3071 3072 3074 3077 3079 3080 3082 3084 3085
3037 3037 3037 3037 3036 3036 3036 3037 3037 3037 3038 3038 3038 3038 3038 3038 3037 3037 3037 3037 3037 3037 3038 3038 3039 3040 3041 3042 3043 3044 3045 3046 3048 3050 3052 3053 3055 3057 3058 3059 3061 3062 3064 3066 3067 3069 3071 3074 3076 3078 3079 3081
3031 3031 3032 3031 3031 3030 3030 3030 3030 3030 3030 3031 3031 3031 3032 3032 3032 3032 3032 3032 3032 3032 3032 3033 3033 3034 3035 3036 3037 3038 3039 3040 3042 3044 3046 3048 3050 3051 3053 3054 3055 3057 3059 3061 3062 3064 3066 3068 3071 3073 3075 3077
3025 3025 3025 3025 3025 3024 3024 3023 3022 3022 3022 3023 3023 3024 3024 3024 3024 3025 3025 3025 3025 3026 3026 3026 3027 3028 3029 3029 3030 3032 3033 3034 3035 3037 3040 3042 3044 3046 3048 3049 3051 3052 3053 3055 3057 3059 3061 3063 3065 3067 3070 3072
3020 3019 3018 3018 3017 3017 3016 3016 3015 3014 3015 3015 3016 3016 3016 3016 3017 3017 3018 3018 3018 3018 3019 3019 3020 3020 3021 3023 3024 3025 3026 3028 3029 3031 3033 3035 3038 3040 3042 3044 3046 3047 3048 3050 3052 3054 3055 3058 3059 3061 3064 3067
3013 3012 3012 3011 3010 3009 3009 3008 3007 3007 3007 3007 3008 3008 3008 3009 3009 3010 3010 3010 3010 3010 3011 3011 3012 3013 3014 3015 3016 3018 3019 3021 3023 3024 3026 3028 3030 3032 3035 3038 3040 3042 3043 3044 3046 3048 3050 3052 3053 3055 3058 3061
3006 3005 3004 3004 3004 3003 3002 3001 3000 3000 3000 3000 3000 3000 3000 3000 3001 3002 3002 3002 3003 3003 3003 3003 3004 3005 3005 3007 3008 3010 3012 3013 3015 3017 3019 3021 3023 3025 3027 3030 3032 3035 3036 3038 3040 3042 3044 3045 3047 3050 3052 3055
2999 2997 2996 2996 2996 2997 2997 2996 2995 2994 2993 2992 2992 2992 2992 2992 2993 2993 2994 2994 2994 2995 2995 2995 2996 2997 2997 2998 3000 3001 3003 3005 3007 3009 3011 3013 3016 3018 3020 3022 3024 3027 3029 3031 3033 3035 3037 3039 3041 3044 3046 3048
2992 2990 2988 2987 2987 2987 2989 2989 2990 2989 2988 2986 2985 2985 2984 2984 2984 2984 2985 2986 2986 2986 2986 2987 2988 2988 2989 2990 2991 2993 2994 2996 2998 3000 3003 3005 3007 3010 3012 3014 3017 3019 3020 3023 3025 3028 3030 3033 3035 3037 3040 3042
2984 2982 2980 2978 2977 2977 2977 2978 2979 2981 2981 2980 2979 2978 2977 2976 2976 2975 2977 2978 2977 2977 2977 2978 2979 2979 2980 2981 2983 2984 2986 2987 2989 2991 2994 2996 2998 3001 3003 3006 3009 3010 3012 3015 3017 3020 3022 3025 3028 3030 3033 3036
2977 2975 2973 2971 2968 2967 2966 2967 2967 2968 2970 2970 2971 2971 2970 2970 2969 2968 2969 2970 2968 2968 2968 2969 2969 2970 2971 2972 2974 2975 2977 2978 2980 2983 2984 2986 2988 2991 2993 2997 3000 3002 3004 3007 3009 3011 3013 3016 3020 3022 3025 3028
2970 2969 2967 2965 2963 2960 2958 2957 2957 2957 2958 2959 2959 2961 2961 2961 2960 2960 2961 2962 2960 2959 2960 2960 2961 2961 2962 2963 2965 2966 2968 2970 2971 2974 2976 2977 2979 2981 2983 2987 2990 2993 2995 2998 3000 3002 3004 3008 3012 3013 3016 3021
2961 2959 2958 2957 2956 2955 2953 2951 2949 2948 2949 2949 2949 2949 2950 2950 2950 2950 2951 2953 2952 2951 2951 2951 2952 2952 2953 2954 2956 2957 2959 2961 2962 2964 2966 2968 2970 2972 2974 2977 2980 2983 2986 2989 2992 2994 2996 3000 3002 3003 3008 3013
2953 2950 2948 2946 2946 2946 2944 2943 2941 2940 2940 2942 2941 2940 2940 2940 2939 2939 2941 2943 2943 2943 2943 2943 2943 2944 2945 2946 2947 2948 2950 2951 2953 2955 2957 2959 2961 2963 2965 2967 2970 2972 2976 2980 2983 2985 2987 2991 2992 2995 3001 3003
2947 2944 2941 2938 2937 2935 2933 2932 2931 2930 2930 2932 2932 2932 2932 2931 2931 2930 2931 2933 2934 2934 2934 2934 2934 2935 2937 2938 2939 2940 2941 2943 2944 2946 2949 2951 2952 2955 2956 2958 2960 2963 2967 2970 2973 2976 2979 2982 2984 2988 2992 2993
2941 2938 2935 2933 2931 2928 2925 2922 2921 2920 2919 2919 2920 2921 2923 2923 2923 2922 2922 2923 2925 2925 2926 2927 2927 2928 2929 2930 2931 2932 2934 2935 2937 2939 2941 2943 2945 2947 2948 2949 2951 2954 2958 2960 2963 2967 2970 2973 2975 2980 2983 2984
Wind_Speed
36 36 36 35 34 33 32 30 31 31 33 33 31 30 28 25 24 23 23 24 25 24 24 25 24 22 21 21 20 19 19 19 19 20 20 20 20 19 20 21 20 22 22 22 24 23 17 14 15 19 22 25
34 35 35 36 35 34 33 34 33 33 34 34 30 29 28 26 27 26 25 25 27 26 25 25 25 24 23 22 22 21 21 20 20 21 19 18 18 20 21 23 22 23 24 23 24 24 20 16 15 18 21 25
32 32 33 34 35 35 35 35 35 35 36 36 33 30 29 28 29 29 27 26 27 27 27 27 26 26 26 25 24 23 21 20 21 22 20 18 18 19 22 24 23 23 24 24 24 25 24 19 16 17 20 24
31 31 32 32 33 35 36 36 36 36 37 38 36 33 31 30 31 31 30 29 29 29 28 29 29 28 28 27 26 24 22 21 21 21 20 20 19 19 21 24 25 24 24 24 24 26 26 20 17 18 19 22
33 32 32 32 32 34 37 39 39 38 37 38 39 36 33 32 32 32 32 32 31 30 29 30 30 29 29 29 29 27 25 23 22 22 21 21 22 20 20 24 26 25 25 25 24 27 28 23 19 18 18 20
34 34 33 33 33 34 37 41 43 43 40 39 39 38 36 34 34 33 33 34 34 33 31 31 31 31 32 31 31 30 28 27 25 25 23 22 23 22 22 24 27 26 27 28 27 27 29 27 22 19 19 20
34 34 34 34 34 34 36 40 43 45 43 40 40 40 37 36 36 36 35 35 35 37 36 34 34 33 34 33 33 32 32 31 29 28 27 25 25 25 25 24 26 28 30 30 28 28 29 28 26 22 19 20
32 33 34 34 34 34 35 37 40 43 44 42 41 40 39 37 37 37 37 37 37 38 37 36 36 36 35 35 35 35 35 35 33 31 29 28 27 27 27 26 26 28 31 31 28 27 29 30 29 26 22 21
30 31 32 33 33 34 34 34 36 39 41 42 42 40 40 39 38 37 35 37 39 39 38 38 38 38 38 37 37 37 37 37 36 35 32 31 30 30 30 29 28 29 31 31 29 28 29 31 32 32 25 21
28 29 29 30 30 31 32 32 33 34 36 38 40 40 40 40 40 39 35 33 35 37 38 39 39 40 40 39 39 38 39 39 39 38 36 34 33 32 31 32 31 31 31 31 30 29 30 32 33 34 30 22
27 28 28 28 28 29 29 29 30 30 31 33 35 38 40 41 42 42 41 38 36 34 33 33 35 39 40 39 40 39 40 41 41 41 39 38 36 34 33 33 34 34 33 32 31 30 31 34 33 33 32 25
27 27 27 27 27 27 28 28 28 28 29 29 30 33 36 39 41 44 45 45 44 41 37 34 32 35 39 39 40 41 42 43 44 43 42 41 39 37 35 33 33 33 34 32 31 31 32 35 34 34 33 28
29 29 28 28 28 28 28 27 27 28 28 28 29 29 31 33 36 40 43 46 48 49 48 45 40 39 41 41 41 41 42 44 46 46 44 43 42 41 39 38 35 33 33 33 33 32 32 34 35 34 33 29
30 30 30 30 30 30 29 29 28 28 28 28 29 29 29 30 31 33 36 39 42 45 47 48 47 46 46 46 45 44 42 42 44 46 46 45 44 43 42 42 40 37 35 37 37 35 34 35 36 35 34 32
32 32 32 32 32 32 32 31 30 29 29 29 29 29 29 30 31 31 32 33 34 37 39 41 44 46 49 50 50 49 46 44 43 43 44 45 46 45 44 43 43 41 38 38 39 39 37 36 36 36 36 34
32 33 33 34 34 34 34 34 33 33 32 32 32 31 31 31 31 32 32 33 34 34 35 37 38 40 44 48 51 52 50 48 46 44 43 44 45 46 46 46 46 45 43 40 40 41 40 38 38 38 37 36
32 32 33 34 34 34 35 35 35 36 36 36 36 36 36 36 35 35 36 36 36 37 37 38 38 39 40 42 46 50 50 48 46 45 43 42 43 44 46 48 48 49 49 45 43 43 42 40 40 39 39 39
34 34 34 34 34 34 35 36 37 38 39 39 39 40 40 41 41 41 41 42 42 42 42 42 42 42 42 43 43 45 48 48 46 44 43 42 41 42 43 46 48 49 50 50 48 46 44 43 42 41 41 41
37 37 37 37 38 39 40 41 42 42 43 43 43 43 44 45 45 46 46 47 47 47 48 48 48 47 47 47 47 47 48 49 49 47 45 44 42 42 42 44 46 48 50 50 50 49 47 46 44 43 44 44
38 39 41 43 44 46 47 47 47 46 46 46 47 48 48 49 49 50 51 51 52 52 52 52 53 53 52 52 52 52 52 52 52 52 51 49 47 45 44 44 46 48 50 51 50 50 50 49 48 47 46 45
40 41 43 46 49 51 52 53 52 51 51 50 51 53 54 54 54 55 55 56 56 57 57 57 57 57 57 57 57 56 57 57 57 57 56 55 54 51 49 48 47 48 51 54 54 53 51 50 49 50 49 47
43 44 46 47 49 51 53 56 57 57 56 55 57 59 60 60 61 61 61 61 61 61 61 61 62 62 62 62 61 61 60 60 60 61 61 60 59 58 56 54 53 51 52 55 57 57 55 53 49 48 49 50
48 48 50 50 51 52 53 55 58 60 60 60 62 64 66 68 68 67 66 65 65 65 65 64 65 65 65 65 65 65 64 64 64 64 65 65 64 63 62 60 59 58 56 56 58 58 58 58 55 50 48 50
54 55 55 55 56 56 56 57 58 59 62 64 66 68 71 74 74 73 70 68 67 66 66 65 65 65 66 67 67 68 68 67 67 67 67 68 68 68 67 66 65 64 63 60 60 60 60 60 61 59 54 50
61 61 61 61 61 61 61 61 61 62 64 66 69 71 74 77 78 76 72 68 66 65 65 64 63 64 65 65 67 68 68 69 69 68 68 69 70 70 70 70 69 69 68 65 63 64 63 62 62 64 63 58
65 65 65 65 65 65 66 66 66 66 67 68 70 73 76 78 78 76 71 66 64 63 63 62 61 61 62 64 65 66 67 68 68 68 68 68 69 70 70 71 70 69 69 67 65 66 67 66 65 64 66 66
65 64 63 64 64 64 65 66 67 68 70 72 73 74 75 75 74 72 68 63 60 60 60 59 59 59 60 61 62 63 64 65 66 66 66 67 67 68 69 69 69 68 67 66 65 67 69 69 68 67 67 69
62 60 58 57 57 57 58 62 65 68 70 71 71 71 69 68 67 67 64 59 56 56 56 56 57 57 58 59 60 61 62 63 64 64 64 64 65 66 66 67 67 67 66 65 65 66 69 70 71 71 69 68
58 55 53 51 50 51 52 57 62 65 67 66 65 65 64 62 62 62 60 56 53 52 52 52 53 54 56 57 57 57 59 60 61 61 61 61 61 62 64 65 66 66 66 65 65 65 67 70 71 72 72 69
53 50 48 48 48 50 52 55 58 61 62 61 59 58 58 58 58 57 56 53 49 48 48 47 48 50 51 52 52 53 55 56 57 56 56 56 57 58 60 61 63 65 65 64 64 65 66 68 70 72 73 72
47 46 46 48 50 51 52 54 55 55 55 55 55 55 54 53 53 52 52 50 46 44 44 43 44 45 46 47 48 49 50 51 52 52 51 50 51 53 54 56 60 62 62 63 63 64 65 67 69 71 72 73
Wind_Direction
251 251 250 248 247 245 240 236 239 242 242 243 245 245 244 241 242 243 244 244 240 238 238 241 243 241 240 244 245 243 243 242 240 240 248 248 236 229 230 228 230 244 248 244 251 258 255 251 243 232 224 219
250 248 248 247 245 242 236 231 236 239 239 241 240 241 242 243 245 245 244 244 243 240 238 238 238 237 237 239 241 241 242 242 241 240 247 251 241 231 226 226 229 237 245 241 245 256 256 255 252 240 232 223
250 247 245 245 243 239 232 228 235 239 238 239 237 238 243 245 247 248 245 242 242 240 237 237 236 236 237 236 237 239 241 241 240 241 241 244 244 236 226 227 231 235 242 242 242 252 256 255 252 244 240 230
250 247 246 245 242 236 228 225 232 238 238 237 237 240 243 244 245 248 246 242 240 238 235 235 235 236 237 237 237 236 237 238 241 242 238 238 241 238 230 228 231 234 240 244 244 249 252 251 249 246 244 238
252 249 248 246 242 236 229 223 227 234 237 238 240 241 242 243 245 246 246 244 241 238 234 234 235 235 236 237 237 236 235 235 238 240 239 238 239 239 234 231 231 231 236 241 243 246 250 248 243 243 244 243
252 251 249 248 244 239 233 227 226 230 234 239 242 242 241 242 244 244 245 245 243 241 237 235 234 233 234 235 235 235 236 236 237 239 240 240 241 242 238 235 233 231 232 236 240 245 250 249 240 237 240 244
252 252 250 249 247 243 238 234 231 232 234 237 240 241 240 240 241 243 244 244 243 242 241 238 236 234 233 234 234 235 235 236 237 238 241 243 244 243 239 237 236 233 232 233 236 242 247 250 245 234 236 245
251 251 250 249 248 246 243 239 237 235 235 236 238 239 239 238 240 243 245 244 243 241 240 240 237 236 236 237 236 236 237 237 238 237 238 241 243 244 241 239 239 237 235 232 233 238 242 249 250 240 238 250
249 249 249 248 248 247 246 244 242 240 239 239 239 239 238 237 237 240 242 241 243 242 240 239 239 238 238 239 239 239 239 239 240 239 238 237 238 243 243 241 242 241 239 235 231 232 237 244 250 249 245 250
246 245 245 246 246 245 246 246 246 245 244 244 242 241 240 238 236 237 241 239 239 240 238 236 236 238 239 240 240 240 242 243 243 242 241 239 236 239 243 243 243 243 242 240 235 230 232 239 247 253 251 247
247 245 244 243 243 243 243 243 245 245 245 245 246 244 243 241 238 238 243 245 245 244 242 238 234 237 240 241 241 241 241 243 244 243 242 242 239 237 240 243 243 243 243 243 241 234 232 236 242 250 251 247
252 249 247 245 243 242 242 241 241 242 243 243 244 244 244 244 242 241 243 245 248 251 252 251 245 240 241 242 242 242 241 243 243 242 240 241 240 237 238 240 242 244 243 242 242 239 236 237 240 244 247 246
256 255 254 251 249 246 243 242 241 240 240 240 240 240 241 242 244 244 245 245 246 250 252 253 250 244 242 243 242 241 240 242 243 241 238 238 238 238 239 240 242 245 245 244 242 241 240 241 243 244 244 242
260 259 257 256 254 253 250 247 245 243 241 240 239 239 238 239 240 242 244 245 246 248 250 251 250 246 244 244 245 245 243 242 241 239 237 236 237 238 240 240 242 243 246 247 246 243 241 242 245 246 246 243
264 263 261 260 258 257 256 255 253 252 249 246 244 242 240 239 239 240 240 241 243 245 247 248 249 247 245 245 246 248 249 248 245 241 237 235 235 237 239 239 240 240 242 245 246 244 242 241 244 246 248 246
270 268 266 265 263 261 259 258 258 257 257 256 254 251 249 248 247 246 245 244 244 243 244 244 245 246 246 246 246 247 249 250 250 248 243 238 236 236 237 238 239 240 240 241 243 243 241 241 243 244 247 248
277 274 272 271 270 268 266 264 262 261 260 258 257 256 255 255 255 255 254 253 252 250 248 247 246 246 245 246 246 247 248 248 249 248 248 246 243 240 238 239 240 240 242 242 242 244 243 241 242 244 245 247
283 282 280 279 278 277 276 275 273 270 268 265 262 261 259 258 257 258 258 258 257 256 254 253 251 250 249 248 247 247 249 249 248 247 247 249 252 251 247 245 243 242 242 243 243 244 245 244 242 242 245 246
285 287 287 286 285 285 284 283 281 278 276 274 272 270 267 265 262 261 261 261 261 259 258 257 255 254 253 252 251 250 250 251 252 251 250 250 253 256 257 255 251 247 244 243 244 244 244 245 244 242 243 244
285 288 289 290 290 290 289 288 286 284 282 281 281 280 277 274 271 268 267 267 266 264 262 261 259 257 256 255 254 254 253 253 253 254 254 254 254 254 256 258 258 256 251 245 244 243 242 242 243 243 242 242
287 288 289 290 291 292 292 291 290 289 288 288 290 289 286 283 279 275 273 271 270 269 267 266 264 262 261 260 258 257 257 256 255 255 255 255 255 255 254 255 257 259 259 253 247 245 242 240 239 240 240 240
294 294 292 291 290 291 291 292 291 291 290 292 295 296 294 291 287 283 279 275 273 272 271 270 268 267 266 264 262 261 260 259 258 257 256 255 255 255 254 254 255 256 259 259 254 249 246 243 241 239 238 236
301 300 298 295 292 290 289 289 289 289 289 291 295 297 297 296 294 290 285 281 278 276 274 273 272 270 269 267 266 264 263 262 262 260 259 257 256 255 254 254 255 255 257 259 257 254 250 247 245 242 240 237
305 304 302 300 297 293 290 288 286 285 285 287 291 295 298 299 298 295 290 285 282 279 277 276 274 272 271 269 268 266 265 264 264 262 261 260 258 257 255 254 255 255 256 257 257 255 253 250 247 244 243 242
307 307 305 304 301 299 296 293 290 287 285 286 289 293 297 298 298 296 291 287 284 281 278 277 275 273 271 270 268 267 266 265 264 263 262 261 260 258 257 256 255 255 254 255 255 253 253 251 249 246 243 243
307 307 306 305 304 303 300 298 295 293 291 290 290 292 295 296 295 293 289 285 282 280 278 276 274 272 270 269 267 266 265 264 263 262 261 260 259 258 257 256 255 255 254 253 252 251 250 250 250 248 245 243
309 307 306 304 303 302 301 299 297 296 294 293 292 292 293 293 291 289 286 282 278 276 275 273 271 270 268 267 266 265 264 263 262 261 260 259 258 257 256 255 254 253 253 251 249 248 248 248 248 248 248 246
311 310 307 304 301 300 298 297 296 295 294 293 292 291 290 289 287 285 282 278 274 271 270 268 267 265 264 264 263 263 262 261 260 259 258 258 257 256 256 255 254 252 251 249 247 245 245 245 245 246 247 248
311 310 308 305 302 299 296 293 292 291 290 288 287 287 286 285 283 280 278 274 270 267 265 264 263 261 260 260 260 260 259 259 258 257 256 255 255 254 254 253 252 251 250 248 246 243 242 242 242 243 244 245
310 309 307 306 304 301 297 294 291 289 287 285 283 282 281 280 278 276 273 270 266 263 261 259 259 259 258 257 256 256 256 256 256 256 255 254 253 253 252 251 250 249 248 247 244 242 240 239 239 241 242 242
309 307 306 305 303 300 297 294 292 290 288 286 283 281 278 276 273 270 268 266 262 260 257 255 254 256 256 255 254 254 254 255 255 255 255 254 254 252 252 251 249 248 247 246 244 241 240 238 238 238 239 240